FW8419 Weather Reports


Display with metric or nautical units.
time (UTC)temp
F
wind
direction
speed
MPH
gust
MPH
rain 1hr
in
rain 24hr
in
rain mn
in
humidity
%
barometer
mb
20260507010124 59 206 1.0 8.0 0.00 0.00 0.00 72 1018.8
20260507005124 59 307 1.0 5.0 0.00 0.00 0.00 72 1018.8
20260507004124 59 91 0.0 3.0 0.00 0.00 0.00 72 1018.9
20260507003123 59 212 0.0 3.0 0.00 0.00 0.00 72 1018.7
20260507002122 59 142 1.0 6.0 0.00 0.00 0.00 71 1018.7
20260507001123 59 192 1.0 6.0 0.00 0.00 0.00 71 1018.7
20260507000122 59 162 1.0 10.0 0.00 0.00 0.00 70 1018.7
20260506235122 60 193 0.0 3.0 0.00 0.00 0.00 70 1018.8
20260506234122 60 186 0.0 2.0 0.00 0.00 0.00 71 1018.7
20260506233122 60 148 1.0 5.0 0.00 0.00 0.00 71 1018.6
20260506232122 60 150 3.0 10.0 0.00 0.00 0.00 71 1018.7
20260506231122 60 114 1.0 6.0 0.00 0.00 0.00 72 1018.6
20260506230122 59 152 2.0 6.0 0.00 0.00 0.00 70 1018.7
20260506225124 59 153 2.0 11.0 0.00 0.00 0.00 70 1018.8
20260506224122 59 128 3.0 11.0 0.00 0.00 0.00 74 1018.7
20260506223143 59 143 2.0 6.0 0.00 0.00 0.00 73 1018.8
20260506222143 59 124 2.0 8.0 0.00 0.00 0.00 74 1018.8
20260506221143 59 144 2.0 10.0 0.00 0.00 0.00 75 1018.9
20260506220122 59 166 0.0 6.0 0.00 0.00 0.00 75 1018.9
20260506215122 59 123 4.0 14.0 0.00 0.00 0.00 75 1018.9
20260506214122 59 141 3.0 14.0 0.00 0.00 0.00 75 1018.9
20260506213122 59 126 4.0 16.0 0.00 0.00 0.00 75 1019.0
20260506212122 59 131 4.0 13.0 0.00 0.00 0.00 76 1019.0
20260506211124 58 154 2.0 8.0 0.00 0.00 0.00 77 1019.1
20260506210122 58 84 3.0 11.0 0.00 0.00 0.00 78 1019.2
20260506205124 58 83 3.0 11.0 0.00 0.00 0.00 78 1019.2
20260506204122 58 111 2.0 11.0 0.00 0.00 0.00 78 1019.2
20260506203122 58 100 2.0 11.0 0.00 0.00 0.00 79 1019.2
20260506202145 58 111 3.0 11.0 0.00 0.00 0.00 79 1019.2
20260506201124 57 115 2.0 8.0 0.00 0.00 0.00 79 1019.2
20260506200123 57 121 2.0 11.0 0.00 0.00 0.00 80 1019.1
20260506195122 57 104 3.0 11.0 0.00 0.00 0.00 81 1019.1
20260506194124 56 110 2.0 8.0 0.00 0.00 0.00 81 1019.2
20260506193122 56 124 4.0 14.0 0.00 0.00 0.00 81 1019.3
20260506192122 56 120 2.0 13.0 0.00 0.00 0.00 81 1019.2
20260506191122 57 131 1.0 6.0 0.00 0.00 0.00 81 1019.2
20260506190122 57 127 2.0 6.0 0.00 0.00 0.00 81 1019.4
20260506185144 57 130 2.0 8.0 0.00 0.00 0.00 79 1019.2
20260506184122 56 151 3.0 11.0 0.00 0.00 0.00 80 1019.2
20260506183143 56 140 2.0 10.0 0.00 0.00 0.00 80 1019.3
20260506182122 56 178 1.0 6.0 0.00 0.00 0.00 80 1019.1
20260506181122 56 127 1.0 8.0 0.00 0.00 0.00 82 1019.0
20260506180145 56 117 2.0 6.0 0.00 0.00 0.00 82 1019.0
20260506175122 56 108 1.0 6.0 0.00 0.00 0.00 82 1019.0
20260506174122 56 74 1.0 5.0 0.00 0.00 0.00 82 1019.0
20260506173122 55 139 1.0 5.0 0.00 0.00 0.00 82 1019.0
20260506172124 55 140 3.0 11.0 0.00 0.00 0.00 81 1019.0
20260506171122 55 149 1.0 6.0 0.00 0.00 0.00 82 1019.0
20260506170122 55 154 1.0 8.0 0.00 0.00 0.00 82 1019.0
20260506165145 55 166 2.0 10.0 0.00 0.00 0.00 82 1019.0
20260506164122 55 133 4.0 13.0 0.00 0.00 0.00 82 1018.8
20260506163123 55 140 3.0 10.0 0.00 0.00 0.00 82 1018.7
20260506162122 55 169 1.0 8.0 0.00 0.00 0.00 82 1018.8
20260506161124 55 147 1.0 11.0 0.00 0.00 0.00 83 1018.8
20260506160122 55 133 3.0 8.0 0.00 0.00 0.00 82 1019.0
20260506155123 55 128 2.0 8.0 0.00 0.00 0.00 84 1018.8
20260506154124 55 150 2.0 10.0 0.00 0.00 0.00 84 1018.7
20260506153123 55 123 0.0 5.0 0.00 0.00 0.00 86 1018.7
20260506152123 55 131 1.0 6.0 0.00 0.00 0.00 85 1018.7
20260506151122 54 156 1.0 6.0 0.00 0.00 0.00 84 1018.7
20260506150123 54 176 1.0 5.0 0.00 0.00 0.00 85 1018.6
20260506145122 55 123 2.0 13.0 0.00 0.00 0.00 85 1018.5
20260506144143 55 121 1.0 8.0 0.00 0.00 0.00 86 1018.4
20260506143145 54 125 2.0 13.0 0.00 0.00 0.00 85 1017.9
20260506142122 54 132 5.0 18.0 0.00 0.00 0.00 85 1017.8
20260506141124 54 126 1.0 6.0 0.00 0.00 0.00 85 1017.9
20260506140122 54 130 2.0 14.0 0.00 0.00 0.00 85 1017.9
20260506135123 54 130 3.0 8.0 0.00 0.00 0.00 86 1017.6
20260506134122 54 147 1.0 8.0 0.00 0.00 0.00 85 1017.8
20260506133143 54 141 5.0 18.0 0.00 0.00 0.00 85 1017.8
20260506132122 54 153 2.0 10.0 0.00 0.00 0.00 85 1017.7
20260506131122 54 157 2.0 10.0 0.00 0.00 0.00 85 1017.6
20260506130122 54 135 1.0 8.0 0.00 0.00 0.00 85 1017.5
20260506125124 54 148 4.0 14.0 0.00 0.00 0.00 86 1017.2
20260506124123 54 142 3.0 13.0 0.00 0.00 0.00 85 1017.2
20260506123123 54 136 3.0 16.0 0.00 0.00 0.00 85 1017.1
20260506122122 54 145 3.0 13.0 0.00 0.00 0.00 85 1017.1
20260506121124 54 145 3.0 13.0 0.00 0.00 0.00 84 1017.2
20260506120122 55 142 2.0 8.0 0.00 0.00 0.00 84 1017.1
20260506115124 55 136 2.0 8.0 0.00 0.00 0.00 83 1017.2
20260506114124 55 130 2.0 6.0 0.00 0.00 0.00 83 1017.1
20260506113144 55 138 2.0 8.0 0.00 0.00 0.00 84 1016.9
20260506112122 55 128 2.0 8.0 0.00 0.00 0.00 85 1016.8
20260506111122 55 128 3.0 10.0 0.00 0.00 0.00 85 1016.7
20260506110122 55 124 3.0 10.0 0.00 0.00 0.00 85 1016.7
20260506105122 55 129 3.0 10.0 0.00 0.00 0.00 85 1016.6
20260506104143 55 125 3.0 11.0 0.00 0.00 0.00 85 1016.4
20260506103122 55 121 3.0 10.0 0.00 0.00 0.00 85 1016.4
20260506102122 55 116 1.0 6.0 0.00 0.00 0.00 85 1016.3
20260506101122 55 124 2.0 8.0 0.00 0.00 0.00 84 1016.1
20260506100123 55 126 3.0 10.0 0.00 0.00 0.00 84 1016.1
20260506095122 55 115 3.0 6.0 0.00 0.00 0.00 84 1015.9
20260506094124 55 117 3.0 10.0 0.00 0.00 0.00 84 1015.8
20260506093122 55 117 2.0 8.0 0.00 0.00 0.00 84 1015.7
20260506092122 55 120 2.0 11.0 0.00 0.00 0.00 84 1015.7
20260506091122 55 122 3.0 11.0 0.00 0.00 0.00 85 1015.7
20260506090122 55 127 3.0 10.0 0.00 0.00 0.00 85 1015.6
20260506085122 55 120 4.0 13.0 0.00 0.00 0.00 85 1015.5
20260506084122 55 118 2.0 6.0 0.00 0.00 0.00 85 1015.4
20260506083122 56 118 2.0 6.0 0.00 0.00 0.00 84 1015.4
20260506082124 56 120 2.0 6.0 0.00 0.00 0.00 84 1015.5
20260506081123 56 115 3.0 10.0 0.00 0.00 0.00 84 1015.4
20260506080122 56 124 3.0 11.0 0.00 0.00 0.00 84 1015.3
20260506073122 56 125 4.0 11.0 0.00 0.00 0.00 84 1014.9
20260506072124 56 123 4.0 13.0 0.00 0.00 0.00 84 1015.0
20260506071122 57 128 4.0 11.0 0.00 0.00 0.00 84 1015.1
20260506070124 57 125 3.0 10.0 0.00 0.00 0.00 83 1014.9
20260506062122 58 119 1.0 5.0 0.00 0.00 0.00 80 1014.7
20260506061122 58 120 1.0 3.0 0.00 0.00 0.00 80 1014.6
20260506060122 58 127 1.0 5.0 0.00 0.00 0.00 80 1014.5
20260506051143 60 135 0.0 3.0 0.00 0.00 0.00 76 1014.2
20260506050122 60 137 0.0 2.0 0.00 0.00 0.00 75 1014.2
20260506045122 61 135 1.0 5.0 0.00 0.00 0.00 74 1014.1
20260506044143 61 119 0.0 3.0 0.00 0.00 0.00 74 1014.1
20260506043124 61 128 1.0 6.0 0.00 0.00 0.00 73 1014.1
20260506042143 61 102 0.0 3.0 0.00 0.00 0.00 72 1014.0
20260506041122 62 129 1.0 5.0 0.00 0.00 0.00 72 1013.9
20260506040122 62 128 1.0 3.0 0.00 0.00 0.00 71 1013.7
20260506035122 62 133 1.0 3.0 0.00 0.00 0.00 70 1013.6
20260506034122 62 132 2.0 5.0 0.00 0.00 0.00 69 1013.5
20260506033123 63 142 1.0 5.0 0.00 0.00 0.00 69 1013.4
20260506032122 63 167 0.0 3.0 0.00 0.00 0.00 68 1013.2
20260506031124 63 164 1.0 8.0 0.00 0.00 0.00 68 1013.2
20260506030122 63 246 1.0 5.0 0.00 0.00 0.00 67 1013.1
20260506025124 64 232 0.0 5.0 0.00 0.00 0.00 66 1013.1
20260506024144 64 217 1.0 8.0 0.00 0.00 0.00 66 1013.0
20260506023122 65 232 1.0 6.0 0.00 0.00 0.00 64 1012.9
20260506022145 66 262 2.0 10.0 0.00 0.00 0.00 65 1013.1
20260506021122 65 252 1.0 6.0 0.00 0.00 0.00 65 1013.1
20260506020143 65 262 3.0 11.0 0.00 0.00 0.00 65 1013.1
20260506015123 65 234 2.0 8.0 0.00 0.00 0.00 65 1013.2
20260506014122 65 224 3.0 10.0 0.00 0.00 0.00 64 1013.2
20260506013122 65 236 3.0 14.0 0.00 0.00 0.00 64 1013.1
20260506012122 66 226 3.0 13.0 0.00 0.00 0.00 63 1013.3
20260506011122 66 234 3.0 14.0 0.00 0.00 0.00 65 1013.2